Weather History for Rockport, TX

Change the Weather History Date:

Saturday, May 11, 2013

  Actual Average Record
Temperature  
Mean Temperature 78 °F -  
Max Temperature 87 °F 81 °F 88 °F (2000)
Min Temperature 70 °F 69 °F 57 °F (1981)
Cooling Degree Days 13    
Growing Degree Days 28 (Base 50)    
Moisture  
Dew Point 67 °F    
Average Humidity 77    
Maximum Humidity 94    
Minimum Humidity 43    
Precipitation  
Precipitation 0.07 in - - ()
Sea Level Pressure  
Sea Level Pressure 30.00 in    
Wind  
Wind Speed 10 mph (NNE)    
Max Wind Speed 16 mph    
Max Gust Speed -    
Visibility 9 miles    
Events Rain , Thunderstorm    
Averages and records for this station are not official NWS values.
T = Trace of Precipitation, MM = Missing Value Source: NWS Daily Summary

Daily Weather History Graph

Daily Weather History Graph

Search for Another Location

Airport:

Trip Planner

Search our weather history database for the weather conditions in past years. The results will help you decide how hot, cold, wet, or windy it might be!

Date:

Astronomy

May. 11, 2013 Rise Set
Actual Time 6:40 AM CDT 8:08 PM CDT
Civil Twilight 6:15 AM CDT 8:34 PM CDT
Nautical Twilight 5:44 AM CDT 9:04 PM CDT
Astronomical Twilight 5:13 AM CDT 9:36 PM CDT
Moon 7:51 AM CDT (5/11) 9:47 PM CDT (5/11)
Length of Visible Light 14h 18m
Length of Day
13h 28m
Waxing Crescent, 3% of the Moon is Illuminated
May 11
Waxing Crescent
May 17
First Quarter
May 24
Full
May 31
Last Quarter
Jun 8
New

Hourly Weather History & Observations

Time (CDT) Temp. Heat Index Dew Point Humidity Pressure Visibility Wind Dir Wind Speed Gust Speed Precip Events Conditions
12:53 AM 73.0 °F - 68.0 °F 84% 29.96 in 10.0 mi ENE 9.2 mph - N/A   Clear
1:39 AM 73.4 °F - 66.2 °F 78% 29.97 in 10.0 mi North 13.8 mph - N/A   Mostly Cloudy
1:46 AM 73.4 °F - 66.2 °F 78% 29.98 in 10.0 mi NNE 11.5 mph - 0.00 in Rain Light Rain
1:53 AM 73.0 °F - 66.9 °F 81% 29.99 in 10.0 mi North 6.9 mph - 0.00 in Rain Light Rain
2:04 AM 71.6 °F - 66.2 °F 83% 29.97 in 10.0 mi North 9.2 mph - 0.00 in Rain Light Rain
2:53 AM 71.1 °F - 68.0 °F 90% 29.98 in 9.0 mi Variable 3.5 mph - 0.00 in Rain Light Rain
3:20 AM 71.6 °F - 68.0 °F 88% 29.99 in 10.0 mi North 8.1 mph - 0.01 in Rain , Thunderstorm Light Rain
3:35 AM 71.6 °F - 68.0 °F 88% 29.99 in 10.0 mi North 9.2 mph - 0.01 in Rain Light Rain
3:53 AM 71.1 °F - 68.0 °F 90% 30.01 in 8.0 mi NW 9.2 mph - 0.01 in Rain Light Rain
4:28 AM 71.6 °F - 69.8 °F 94% 30.03 in 2.5 mi NW 10.4 mph - 0.05 in Rain , Thunderstorm Thunderstorms and Rain
4:36 AM 71.6 °F - 69.8 °F 94% 30.02 in 7.0 mi NW 12.7 mph - 0.05 in Rain , Thunderstorm Light Thunderstorms and Rain
4:43 AM 71.6 °F - 68.0 °F 88% 30.01 in 7.0 mi NW 13.8 mph - 0.05 in Rain Light Rain
4:53 AM 71.1 °F - 69.1 °F 93% 30.00 in 8.0 mi NW 12.7 mph - 0.05 in Rain Light Rain
5:53 AM 70.0 °F - 66.9 °F 90% 29.97 in 10.0 mi NNE 5.8 mph - 0.01 in   Clear
6:53 AM 70.0 °F - 66.9 °F 90% 29.97 in 10.0 mi NE 10.4 mph - N/A   Clear
7:53 AM 71.1 °F - 66.9 °F 87% 30.01 in 10.0 mi NE 11.5 mph - N/A   Partly Cloudy
8:53 AM 72.0 °F - 66.9 °F 84% 30.04 in 10.0 mi NNE 10.4 mph - N/A   Scattered Clouds
9:53 AM 73.9 °F - 64.9 °F 73% 30.03 in 10.0 mi North 16.1 mph - N/A   Clear
10:53 AM 79.0 °F - 64.9 °F 62% 30.03 in 10.0 mi North 15.0 mph - N/A   Clear
11:53 AM 82.9 °F 84.0 °F 63.0 °F 51% 30.03 in 10.0 mi NE 16.1 mph - N/A   Clear
12:53 PM 86.0 °F 86.1 °F 61.0 °F 43% 30.02 in 10.0 mi NNE 13.8 mph - N/A   Clear
1:53 PM 84.0 °F 85.8 °F 64.9 °F 53% 30.01 in 10.0 mi ESE 9.2 mph - N/A   Clear
2:53 PM 84.0 °F 87.8 °F 69.1 °F 61% 30.01 in 10.0 mi SE 11.5 mph - N/A   Mostly Cloudy
3:53 PM 82.0 °F 84.9 °F 68.0 °F 62% 30.00 in 10.0 mi SE 11.5 mph - N/A   Clear
4:53 PM 81.0 °F 83.8 °F 68.0 °F 65% 29.99 in 10.0 mi SE 8.1 mph - N/A   Clear
5:53 PM 80.1 °F 82.7 °F 68.0 °F 67% 29.98 in 10.0 mi SE 8.1 mph - N/A   Clear
6:53 PM 78.1 °F - 68.0 °F 71% 29.99 in 10.0 mi SE 9.2 mph - N/A   Clear
7:53 PM 75.9 °F - 68.0 °F 76% 30.01 in 10.0 mi ESE 5.8 mph - N/A   Mostly Cloudy
9:53 PM 75.0 °F - 66.9 °F 76% 30.06 in 10.0 mi East 5.8 mph - N/A   Clear
11:53 PM 75.0 °F - 64.0 °F 69% 30.09 in 10.0 mi NNE 10.4 mph - N/A   Clear